Pine Ridge, SD

10:15 AM MST on February 20, 2017 (GMT -0700)
Pine Ridge

Weather History for KIEN - October, 2012

Change the Weather History Date:

Tuesday, October 9, 2012

  Actual Average Record
Temperature  
Mean Temperature 34 °F 51 °F  
Max Temperature 50 °F 67 °F 88 °F (2003)
Min Temperature 18 °F 35 °F 18 °F (2012)
Degree Days  
Heating Degree Days 31 14  
Month to date heating degree days 191 115  
Since 1 July heating degree days 330 337  
Cooling Degree Days 0 0  
Month to date cooling degree days 2 0  
Year to date cooling degree days 1103 714  
Moisture  
Dew Point 32 °F    
Average Humidity 71    
Maximum Humidity 92    
Minimum Humidity 49    
Precipitation  
Precipitation 0.04 in 0.04 in 1.32 in (2010)
Month to date precipitation 0.09 0.38  
Year to date precipitation 9.58 15.78  
Sea Level Pressure  
Sea Level Pressure 30.08 in    
Wind  
Wind Speed 6 mph (NNW)    
Max Wind Speed 21 mph    
Max Gust Speed 26 mph    
Visibility 10 miles    
Events Rain , Snow    
T = Trace of Precipitation, MM = Missing Value Source: NWS Daily Summary

Daily Weather History Graph

Daily Weather History Graph

Search for Another Location

Airport or City:

Trip Planner

Search our weather history database for the weather conditions in past years. The results will help you decide how hot, cold, wet, or windy it might be!

Date:

Astronomy

Oct. 09, 2012 Rise Set
Actual Time 6:57 AM MDT 6:16 PM MDT
Civil Twilight 6:28 AM MDT 6:44 PM MDT
Nautical Twilight 5:55 AM MDT 7:17 PM MDT
Astronomical Twilight 5:22 AM MDT 7:50 PM MDT
Moon 12:26 AM MDT (10/9) 2:53 PM MDT (10/9)
Length of Visible Light 12h 16m
Length of Day
11h 19m
Last Quarter, 36% of the Moon is Illuminated
Oct 9
Last Quarter
Oct 15
New
Oct 21
First Quarter
Oct 29
Full
Nov 6
Last Quarter

Hourly Weather History & Observations

Time (MDT) Temp. Windchill Dew Point Humidity Pressure Visibility Wind Dir Wind Speed Gust Speed Precip Events Conditions
12:52 AM 45.0 °F 41.2 °F 37.0 °F 74% 29.91 in 10.0 mi NNE 6.9 mph - N/A   Overcast
1:52 AM 43.0 °F 38.8 °F 39.0 °F 86% 29.93 in 10.0 mi North 6.9 mph - 0.00 in   Overcast
2:28 AM 42.8 °F 37.5 °F 37.4 °F 81% 29.94 in 10.0 mi North 9.2 mph - N/A   Overcast
2:45 AM 42.8 °F 34.8 °F 37.4 °F 81% 29.94 in 10.0 mi North 17.3 mph 26.5 mph N/A   Overcast
2:52 AM 42.1 °F 35.2 °F 37.0 °F 82% 29.92 in 10.0 mi North 12.7 mph 24.2 mph N/A   Overcast
3:52 AM 39.9 °F 32.5 °F 36.0 °F 86% 29.96 in 10.0 mi North 12.7 mph - 0.00 in Rain Light Rain
4:46 AM 37.4 °F 30.3 °F 35.6 °F 93% 30.00 in 8.0 mi North 10.4 mph 17.3 mph 0.00 in Rain Light Rain
4:57 AM 37.4 °F 30.8 °F 35.6 °F 93% 30.01 in 10.0 mi North 9.2 mph - 0.00 in Rain Light Rain
5:05 AM 37.4 °F 29.8 °F 35.6 °F 93% 30.01 in 10.0 mi North 11.5 mph 18.4 mph 0.00 in Rain Light Rain
5:19 AM 37.4 °F 29.3 °F 33.8 °F 87% 30.02 in 10.0 mi North 12.7 mph - 0.01 in Rain Light Rain
5:52 AM 35.1 °F 30.1 °F 33.1 °F 92% 30.06 in 10.0 mi Variable 5.8 mph - 0.01 in Rain Light Rain
6:02 AM 35.6 °F 29.2 °F 33.8 °F 93% 30.04 in 10.0 mi NNE 8.1 mph - 0.02 in Rain Light Rain
6:18 AM 35.6 °F 29.2 °F 32.0 °F 87% 30.05 in 8.0 mi North 8.1 mph - 0.02 in Snow Light Snow
6:29 AM 33.8 °F 30.8 °F 32.0 °F 93% 30.05 in 4.0 mi North 3.5 mph - 0.02 in Snow Light Snow
6:45 AM 33.8 °F - 32.0 °F 93% 30.05 in 8.0 mi Calm Calm - 0.03 in Snow Light Snow
6:52 AM 34.0 °F - 32.0 °F 92% 30.07 in 9.0 mi Calm Calm - 0.03 in Snow Light Snow
7:52 AM 35.1 °F 30.1 °F 33.1 °F 92% 30.09 in 10.0 mi SW 5.8 mph - 0.00 in   Overcast
8:52 AM 37.0 °F 34.5 °F 33.1 °F 86% 30.12 in 10.0 mi SW 3.5 mph - N/A   Overcast
9:52 AM 39.0 °F 36.8 °F 33.1 °F 79% 30.13 in 10.0 mi West 3.5 mph - N/A   Overcast
10:52 AM 39.9 °F 33.9 °F 33.1 °F 77% 30.14 in 10.0 mi West 9.2 mph - N/A   Overcast
11:17 AM 41.0 °F 35.8 °F 35.6 °F 81% 30.11 in 10.0 mi West 8.1 mph - N/A   Overcast
11:52 AM 43.0 °F 36.8 °F 35.1 °F 74% 30.13 in 10.0 mi West 11.5 mph 16.1 mph N/A   Overcast
12:07 PM 44.6 °F 39.2 °F 35.6 °F 71% 30.11 in 10.0 mi West 10.4 mph - N/A   Overcast
12:29 PM 44.6 °F 39.2 °F 33.8 °F 66% 30.11 in 10.0 mi West 10.4 mph - N/A   Overcast
12:52 PM 45.0 °F 40.6 °F 33.1 °F 63% 30.13 in 10.0 mi WSW 8.1 mph - N/A   Mostly Cloudy
1:08 PM 44.6 °F 39.7 °F 30.2 °F 57% 30.10 in 10.0 mi WNW 9.2 mph - N/A   Mostly Cloudy
1:52 PM 46.9 °F - 28.9 °F 50% 30.10 in 10.0 mi WNW 11.5 mph - N/A   Mostly Cloudy
2:52 PM 46.0 °F 39.3 °F 28.9 °F 51% 30.12 in 10.0 mi North 16.1 mph 20.7 mph N/A   Overcast
3:09 PM 46.4 °F 40.4 °F 32.0 °F 57% 30.10 in 10.0 mi North 13.8 mph - N/A   Mostly Cloudy
3:52 PM 46.9 °F - 30.0 °F 52% 30.12 in 10.0 mi NNE 12.7 mph 19.6 mph N/A   Clear
4:52 PM 46.0 °F 41.0 °F 28.0 °F 50% 30.14 in 10.0 mi NNE 10.4 mph - N/A   Overcast
5:52 PM 42.1 °F 38.4 °F 27.0 °F 55% 30.17 in 10.0 mi NNE 5.8 mph - N/A   Clear
6:52 PM 34.0 °F 29.8 °F 25.0 °F 70% 30.20 in 10.0 mi ENE 4.6 mph - N/A   Clear
8:52 PM 27.0 °F - 23.0 °F 85% 30.24 in 10.0 mi Calm Calm - N/A   Partly Cloudy
9:52 PM 26.1 °F - 21.0 °F 81% 30.25 in 10.0 mi Calm Calm - N/A   Partly Cloudy
10:52 PM 24.1 °F - 21.0 °F 88% 30.25 in 10.0 mi Calm Calm - N/A   Clear
11:52 PM 21.9 °F - 19.0 °F 89% 30.23 in 10.0 mi Calm Calm - N/A   Clear